Torna al catalogo

ONEWEB-0018

AttivoComunicazioniPO
NORAD 45434·PAYLOAD·🇬🇧 United Kingdom

Lanciato Mar 21, 2020 da Baikonur Cosmodrome

Loading…

Prossimi Passaggi (prossime 24 ore)

TLE

AggiornatoSource: CelesTrak SupGP

Epoca: Sep 14, 2026, 12:11 UTC

1 45434C 20020L   26257.50781667 -.00003156  00000+0 -89143-2 0  2576
2 45434  87.8977   3.3093 0002136  95.0837  12.7404 13.11421091    12

Traccia ONEWEB-0018 in tempo reale con AllMySat

Download on the App Store